Location: Basse Occidentale du Courleau
(48.3833°N, 4.8333°W)
Time: 04:35:27
(UTC+00:00)

Cosmos 1745 Rocket - Pass Details

Date: 05 July 2020
Orbit: 953 x 997 km, 83.0° (Epoch: 11 August)

Event Time Altitude Azimuth Distance (km) Brightness Sun altitude
Rises 21:23:44 0° 194° (SSW) 3,636 6.6 -8.3°
Reaches altitude 10° 21:26:14 10° 196° (SSW) 2,699 6.0 -8.6°
Maximum altitude 21:32:24 72° 280° (W) 1,024 4.3 -9.2°
Drops below altitude 10° 21:38:42 10° 6° (N) 2,748 7.1 -9.9°
Sets 21:41:16 0° 8° (N) 3,707 7.8 -10.2°
